Location: Narrabri
(30.3170°S, 149.7830°E)
Time: 06:00:16
(UTC+10:00)

Envisat - Visible Passes

Search period start: 22 August 2019 00:00
Search period end: 01 September 2019 00:00
Orbit: 764 x 766 km, 98.1° (Epoch: 21 August)

Date Brightness Start Highest point End Pass type
(mag) Time Alt. Az. Time Alt. Az. Time Alt. Az.
22 Aug 3.1 18:39:23 10° SSE 18:44:24 52° E 18:49:20 10° N visible
22 Aug 5.8 20:20:13 10° SW 20:22:54 14° WSW 20:25:35 10° W visible
23 Aug 4.7 05:48:15 10° NE 05:52:55 37° ESE 05:57:38 10° S visible
23 Aug 4.2 18:03:41 10° SE 18:07:30 21° E 18:11:17 10° NE visible
23 Aug 4.6 19:41:54 10° S 19:46:29 34° WSW 19:51:02 10° NW visible
24 Aug 5.8 05:13:28 10° ENE 05:16:30 16° ESE 05:19:32 10° SSE visible
24 Aug 3.0 19:04:45 10° S 19:09:54 83° WSW 19:15:00 10° NNW visible
25 Aug 3.4 18:28:20 10° SSE 18:33:08 39° E 18:37:52 10° NNE visible
25 Aug 5.5 20:08:18 10° SSW 20:11:47 19° WSW 20:15:14 10° WNW visible
26 Aug 5.1 05:37:24 10° NE 05:41:45 29° ESE 05:46:08 10° SSE visible
26 Aug 4.1 19:30:28 10° S 19:35:19 44° WSW 19:40:07 10° NW visible
27 Aug 6.1 05:03:24 10° E 05:05:23 12° ESE 05:07:21 10° SE visible
27 Aug 2.9 18:53:31 10° SSE 18:58:40 76° ENE 19:03:45 10° N visible
28 Aug 3.8 18:17:21 10° SE 18:21:50 30° E 18:26:16 10° NNE visible
28 Aug 5.2 19:56:36 10° SSW 20:00:38 24° WSW 20:04:39 10° WNW visible
29 Aug 5.6 05:26:41 10° ENE 05:30:36 23° ESE 05:34:32 10° SSE visible
29 Aug 3.6 19:19:05 10° S 19:24:07 57° WSW 19:29:05 10° NNW visible
30 Aug 3.0 18:42:21 10° SSE 18:47:25 57° E 18:52:24 10° N visible
30 Aug 6.0 20:23:37 10° SW 20:25:51 13° WSW 20:28:06 10° W visible
31 Aug 4.5 05:51:09 10° NE 05:55:54 41° ESE 06:00:43 10° S visible
31 Aug 4.1 18:06:30 10° SE 18:10:32 23° E 18:14:32 10° NNE visible
31 Aug 4.8 19:45:01 10° S 19:49:29 31° WSW 19:53:54 10° NW visible
